STARLINK-2299, 48029

Orbit data source: Space-Track

STARLINK-2299, 48029 is a payload satellite owned by SpaceX/Seattle (US) in LEO that was launched on Wed, 24 Mar 2021 UTC via an FALCON 9 launch vehicle from the Air Force Eastern Test Range (AFETR). Payload-class satellites include a variety of spacecraft equipped with specific instruments for various scientific and technological missions. These include communications satellites like Starlink; space stations such as the ISS; scientific satellites like the Hubble; Earth observation satellites from companies like Planet Labs, Umbra, and HawkEye 360; GPS; miniature CubeSats for education and research; and military/defense satellites.

Loading next visibility...
Identifier
48029, 2021-024BE
Orbit
LEO
Country
Flag of USUS
Related business
Manufacturer
SpaceX/Seattle
Mission
Partially operational Commercial Communications
Bus & Motor
STARLINK, Unknown motor
Mass
260 kg wet, ~248 kg dry
Launch date (UTC)
2021-03-24 (5 years ago)
Launch vehicle
FALCON 9
Launch site
Air Force Eastern Test Range (AFETR)
Object type
Payload
Rocket body
Debris
Shape & HBR
Box + 1 Pan, 10.1 m
Radar Cross Section
13.562 m², Large (>1 m²)

Expand to show TLE details & history
Last TLE update: 12 hours ago

TLE from 12 hours ago
0 STARLINK-2299
1 48029U 21024BE  26175.25002315  .01332378  00000-0  78349-2 0  9991
2 48029  53.1138 183.7240 0001899  77.7073 188.1203 15.74986946  5882
Epoch: 2026-06-24T06:00Z
TLE epoch observation values (Epoch: 2026-06-24T06:00:02.000Z)
Latitude
-53.06744°
Longitude
84.38746°
Altitude
364.355 km
Speed
7.69 km/s
True Right ascension
05h 47m 13s
True Declination
-52° 53' 33"
Sunlit
Object was in daylight at epoch
Visualization orbit readout
Latitude
Unknown
Longitude
Unknown
Altitude
Unknown
Speed
Unknown
Apparent Right ascension
Unknown
Apparent Declination
Unknown
Sunlit
N/A
Visualization observer readout
Local Sidereal Time
05:00:53
Azimuth
Unknown
Elevation
Unknown
Doppler factor
Unknown
Orbital elements
Apogee altitude
346.214 km
Perigee altitude
343.66 km
Semi-major axis
6,723.074 km
Eccentricity
0.00019
Inclination
53.1138°
RAAN
183.724°
Arg. of periapsis
77.7073°
True anomaly
188.11723°
Mean anomaly
188.1203°
Eccentric anomaly
188.11876°
Mean motion
3.93723 °/min
Orbital period
91.43 mins
BSTAR
0.0078349
Loading maneuver chart data...
Computing Atmospheric mass density...

Documentation

Showing up to 5 results
|